FW8255 Weather Reports


time (UTC)temp
F
wind
direction
speed
knots
gust
knots
rain 1hr
in
rain 24hr
in
rain mn
in
humidity
%
barometer
mb
20260503224444 57 261 7.0 13.9 0.00 0.00 0.00 46 1012.5
20260503223942 58 210 3.5 11.3 0.00 0.00 0.00 47 1012.3
20260503223439 58 235 3.5 19.1 0.00 0.00 0.00 48 1012.5
20260503222934 57 281 6.1 11.3 0.00 0.00 0.00 47 1012.5
20260503222433 58 258 5.2 12.2 0.00 0.00 0.00 48 1012.5
20260503221931 58 248 3.5 8.7 0.00 0.00 0.00 48 1012.5
20260503221429 58 284 0.9 12.2 0.00 0.00 0.00 48 1012.6
20260503220926 58 264 1.7 7.0 0.00 0.00 0.00 48 1012.6
20260503220422 58 259 7.8 11.3 0.00 0.00 0.00 46 1012.7
20260503215919 58 248 7.8 9.6 0.00 0.00 0.00 46 1012.4
20260503215416 59 212 7.8 13.9 0.00 0.00 0.00 45 1012.4
20260503214914 58 249 10.4 13.9 0.00 0.00 0.00 46 1012.5
20260503214411 59 229 8.7 9.6 0.00 0.00 0.00 46 1012.5
20260503213908 59 255 7.8 13.0 0.00 0.00 0.00 46 1012.8
20260503213406 58 232 7.8 18.2 0.00 0.00 0.00 46 1012.6
20260503212902 58 228 7.8 13.0 0.00 0.00 0.00 46 1012.5
20260503212400 58 257 7.8 17.4 0.00 0.00 0.00 46 1012.6
20260503211857 59 230 7.8 9.6 0.00 0.00 0.00 46 1012.6
20260503211354 59 239 7.8 14.8 0.00 0.00 0.00 46 1012.5
20260503210849 59 265 3.5 11.3 0.00 0.00 0.00 47 1012.5
20260503210347 58 232 4.3 7.8 0.00 0.00 0.00 47 1012.9
20260503205842 58 253 5.2 8.7 0.00 0.00 0.00 46 1012.7
20260503205339 59 213 7.0 13.9 0.00 0.00 0.00 45 1012.5
20260503204835 59 198 7.0 17.4 0.00 0.00 0.00 46 1012.5
20260503204332 59 274 6.1 8.7 0.00 0.00 0.00 45 1012.6
20260503203829 58 224 4.3 7.8 0.00 0.00 0.00 45 1012.7
20260503203327 59 298 1.7 6.1 0.00 0.00 0.00 46 1012.6
20260503202823 59 231 6.1 12.2 0.00 0.00 0.00 44 1012.7
20260503202321 59 253 5.2 9.6 0.00 0.00 0.00 43 1012.8
20260503201819 59 239 6.1 7.0 0.00 0.00 0.00 44 1012.9
20260503201316 59 225 3.5 7.8 0.00 0.00 0.00 44 1012.8
20260503200814 59 239 7.0 12.2 0.00 0.00 0.00 42 1013.0
20260503200309 59 234 7.8 18.2 0.00 0.00 0.00 43 1013.0
20260503195807 60 238 9.6 13.9 0.00 0.00 0.00 43 1013.2
20260503195304 60 201 7.8 11.3 0.00 0.00 0.00 44 1013.3
20260503194801 59 234 5.2 14.8 0.00 0.00 0.00 45 1013.3
20260503194256 59 253 10.4 17.4 0.00 0.00 0.00 44 1013.4
20260503193753 58 258 4.3 12.2 0.00 0.00 0.00 47 1013.5
20260503193249 58 245 5.2 12.2 0.00 0.00 0.00 46 1013.5
20260503192745 57 207 3.5 13.0 0.00 0.00 0.00 49 1013.6
20260503192240 57 238 4.3 13.9 0.00 0.00 0.00 47 1013.9
20260503191737 59 231 8.7 17.4 0.00 0.00 0.00 46 1013.9
20260503191234 57 275 2.6 7.8 0.00 0.00 0.00 48 1014.0
20260503190731 58 259 7.0 13.9 0.00 0.00 0.00 45 1013.9
20260503190227 59 243 4.3 13.9 0.00 0.00 0.00 47 1014.2
20260503185725 59 261 8.7 14.8 0.00 0.00 0.00 44 1013.9
20260503185220 58 242 7.8 13.9 0.00 0.00 0.00 46 1014.0
20260503184715 58 242 6.1 12.2 0.00 0.00 0.00 45 1014.2
20260503184212 57 257 8.7 20.0 0.00 0.00 0.00 43 1014.3
20260503183708 59 205 11.3 13.9 0.00 0.00 0.00 43 1014.4
20260503183206 58 224 9.6 17.4 0.00 0.00 0.00 44 1014.4
20260503182704 58 275 7.0 9.6 0.00 0.00 0.00 47 1014.3
20260503182202 58 226 6.1 17.4 0.00 0.00 0.00 44 1014.3
20260503181658 58 222 7.8 13.0 0.00 0.00 0.00 45 1014.6
20260503181155 59 241 13.9 18.2 0.00 0.00 0.00 43 1014.6
20260503180652 59 270 7.0 13.9 0.00 0.00 0.00 46 1014.6
20260503180150 58 235 7.0 13.0 0.00 0.00 0.00 45 1014.6
20260503175647 59 286 9.6 11.3 0.00 0.00 0.00 48 1014.8
20260503175144 58 220 10.4 13.9 0.00 0.00 0.00 47 1014.8
20260503174640 58 255 4.3 6.1 0.00 0.00 0.00 50 1014.7
20260503174137 57 244 5.2 12.2 0.00 0.00 0.00 50 1014.7
20260503173632 58 248 6.1 9.6 0.00 0.00 0.00 49 1015.0
20260503173129 58 239 6.1 11.3 0.00 0.00 0.00 50 1015.1
20260503172626 58 227 9.6 19.1 0.00 0.00 0.00 51 1015.1
20260503172124 58 279 4.3 9.6 0.00 0.00 0.00 50 1015.1
20260503171620 58 278 4.3 7.0 0.00 0.00 0.00 50 1015.2
20260503171117 57 263 6.1 13.9 0.00 0.00 0.00 52 1015.2
20260503170614 57 259 4.3 9.6 0.00 0.00 0.00 52 1015.2
20260503170111 57 260 7.8 13.9 0.00 0.00 0.00 51 1015.4
20260503151006 52 260 7.8 9.6 0.00 0.00 0.00 52 1016.3
20260503150503 51 252 9.6 19.1 0.00 0.00 0.00 51 1016.3
20260503131350 46 235 6.1 7.0 0.00 0.00 0.00 57 1017.0
20260503130847 46 222 5.2 8.7 0.00 0.00 0.00 58 1016.7
20260503130344 46 255 4.3 5.2 0.00 0.00 0.00 57 1016.8
20260503110732 34 311 1.7 1.7 0.00 0.00 0.00 88 1016.4
20260503110229 33 316 0.0 0.9 0.00 0.00 0.00 92 1016.5
20260503100155 33 311 0.0 0.9 0.00 0.00 0.00 88 1016.0
20260503090115 35 303 0.9 2.6 0.00 0.00 0.00 86 1016.2
20260503081550 35 299 0.9 2.6 0.00 0.00 0.00 88 1016.2
20260503081048 35 289 0.9 1.7 0.00 0.00 0.00 87 1016.1
20260503080544 35 309 0.0 1.7 0.00 0.00 0.00 87 1016.1
20260503072518 35 279 1.7 2.6 0.00 0.00 0.00 89 1016.1
20260503072015 35 300 0.9 1.7 0.00 0.00 0.00 89 1016.0
20260503071512 36 305 0.9 0.9 0.00 0.00 0.00 89 1016.1
20260503071008 36 305 0.9 2.6 0.00 0.00 0.00 88 1016.0
20260503070505 36 309 0.0 1.7 0.00 0.00 0.00 88 1016.1
20260503054929 34 316 0.0 0.0 0.00 0.00 0.00 92 1016.4
20260503054425 35 317 0.0 0.0 0.00 0.00 0.00 92 1016.4
20260503053923 35 316 0.0 0.9 0.00 0.00 0.00 93 1016.7
20260503053420 35 311 0.0 0.9 0.00 0.00 0.00 93 1016.5
20260503052916 34 316 0.0 0.0 0.00 0.00 0.00 92 1016.4
20260503052414 35 316 0.0 0.0 0.00 0.00 0.00 91 1016.4
20260503051910 35 316 0.0 0.0 0.00 0.00 0.00 91 1016.5
20260503051406 35 317 0.0 0.0 0.00 0.00 0.00 90 1016.6
20260503050904 35 316 0.0 0.0 0.00 0.00 0.00 90 1016.5
20260503050359 36 316 0.0 0.0 0.00 0.00 0.00 89 1016.4
20260503045857 36 316 0.0 0.0 0.00 0.00 0.00 89 1016.6
20260503045354 36 314 0.0 0.0 0.00 0.00 0.00 88 1016.6
20260503044851 37 306 0.0 0.0 0.00 0.00 0.00 87 1016.7
20260503044348 37 306 0.0 0.9 0.00 0.00 0.00 86 1016.6
20260503043845 38 285 0.9 1.7 0.00 0.00 0.00 85 1016.6
20260503043342 38 315 0.0 0.0 0.00 0.00 0.00 85 1016.6
20260503042838 38 306 0.9 1.7 0.00 0.00 0.00 84 1016.8
20260503042335 39 298 0.9 2.6 0.00 0.00 0.00 83 1016.9
20260503041831 39 249 2.6 2.6 0.00 0.00 0.00 82 1016.7
20260503041328 39 296 1.7 1.7 0.00 0.00 0.00 82 1016.6
20260503040826 39 306 0.9 1.7 0.00 0.00 0.00 82 1016.8
20260503040323 39 315 0.0 2.6 0.00 0.00 0.00 82 1016.6
20260503035820 39 330 0.9 1.7 0.00 0.12 0.12 82 1016.8
20260503035317 39 302 0.9 0.9 0.00 0.12 0.12 83 1016.8
20260503034814 39 307 0.9 1.7 0.00 0.12 0.12 83 1016.9
20260503034312 39 320 0.0 0.9 0.00 0.12 0.12 82 1016.8
20260503033809 39 291 1.7 1.7 0.00 0.12 0.12 82 1016.9
20260503033306 39 234 1.7 2.6 0.00 0.12 0.12 81 1016.8
20260503032804 39 304 0.9 4.3 0.00 0.12 0.12 81 1016.8
20260503032304 39 308 0.9 0.9 0.00 0.12 0.12 82 1016.7
20260503031759 39 319 0.0 2.6 0.00 0.12 0.12 81 1016.9
20260503031258 39 315 0.0 0.9 0.00 0.12 0.12 82 1016.9
20260503030753 39 319 0.0 0.0 0.00 0.12 0.12 82 1017.1
20260503030250 39 300 0.9 0.9 0.00 0.12 0.12 81 1016.9
20260503025747 39 302 0.9 0.9 0.00 0.12 0.12 82 1017.0
20260503025244 40 308 0.9 0.9 0.00 0.12 0.12 81 1017.1
20260503024741 40 316 0.0 0.9 0.00 0.12 0.12 80 1017.0
20260503024238 40 278 1.7 1.7 0.00 0.12 0.12 80 1017.1
20260503023735 40 277 0.9 1.7 0.00 0.12 0.12 80 1017.3
20260503023232 39 316 0.0 1.7 0.00 0.12 0.12 83 1017.2
20260503022728 40 315 0.0 0.9 0.00 0.12 0.12 82 1017.2
20260503022228 40 315 0.0 0.9 0.00 0.12 0.12 81 1017.3
20260503021725 39 290 0.9 1.7 0.00 0.12 0.12 81 1017.3
20260503021221 39 308 0.9 0.9 0.00 0.12 0.12 82 1017.2
20260503020719 39 321 0.0 0.0 0.00 0.12 0.12 82 1017.3
20260503020216 39 299 0.9 0.9 0.00 0.12 0.12 82 1017.1
20260503015713 39 315 0.0 0.0 0.00 0.12 0.12 83 1017.3
20260503015210 39 316 0.0 0.9 0.00 0.12 0.12 82 1017.3
20260503014705 39 317 0.0 0.0 0.00 0.12 0.12 82 1017.3
20260503014204 39 316 0.0 0.0 0.00 0.12 0.12 81 1017.1
20260503013700 39 316 0.0 0.0 0.00 0.12 0.12 80 1017.2
20260503013158 39 316 0.0 0.0 0.00 0.12 0.12 78 1017.0
20260503012655 39 316 0.0 0.0 0.00 0.12 0.12 77 1017.1
20260503012152 40 316 0.0 0.0 0.00 0.12 0.12 76 1017.3
20260503011648 39 316 0.0 0.0 0.00 0.12 0.12 75 1017.1
20260503011146 39 316 0.0 0.0 0.00 0.12 0.12 75 1017.2
20260503010642 40 315 0.0 0.9 0.00 0.12 0.12 76 1017.2
20260503010139 40 318 0.0 0.0 0.00 0.12 0.12 78 1017.1
20260503005636 40 325 0.0 0.0 0.00 0.12 0.12 75 1016.9
20260503005133 40 325 0.0 0.0 0.00 0.12 0.12 71 1016.7
20260503004630 40 325 0.0 0.0 0.00 0.12 0.12 70 1016.9
20260503004128 40 325 0.0 0.0 0.00 0.12 0.12 72 1016.9
20260503003625 41 325 0.9 0.9 0.00 0.12 0.12 75 1016.8
20260503003122 41 324 0.0 0.0 0.00 0.12 0.12 70 1017.0
20260503002619 42 326 0.0 0.9 0.00 0.12 0.12 66 1016.8
20260503002115 42 316 0.0 0.0 0.00 0.12 0.12 66 1016.9
20260503001611 42 315 0.0 0.9 0.00 0.12 0.12 65 1016.6
20260503001109 42 316 0.0 0.9 0.00 0.12 0.12 65 1016.8
20260503000606 42 320 0.0 0.9 0.00 0.12 0.12 63 1016.9
20260503000103 42 289 1.7 1.7 0.00 0.12 0.12 64 1016.8
20260502235600 42 315 0.0 1.7 0.00 0.12 0.12 62 1016.8
20260502235058 42 318 0.0 0.9 0.00 0.12 0.12 63 1016.7
20260502234553 42 279 2.6 2.6 0.00 0.12 0.12 62 1016.8
20260502234052 42 299 0.9 1.7 0.00 0.12 0.12 62 1016.7
20260502233551 42 316 0.0 1.7 0.00 0.12 0.12 64 1016.8
20260502233049 42 303 1.7 1.7 0.00 0.12 0.12 62 1016.6
20260502232545 43 325 0.9 1.7 0.00 0.12 0.12 63 1016.7
20260502232042 43 314 1.7 1.7 0.00 0.12 0.12 64 1016.7
20260502231539 43 311 0.9 1.7 0.00 0.12 0.12 63 1016.5
20260502231037 43 316 0.9 1.7 0.00 0.12 0.12 62 1016.7
20260502230535 43 325 0.9 5.2 0.00 0.12 0.12 62 1016.8
20260502230033 43 307 0.9 2.6 0.00 0.12 0.12 62 1016.7
20260502225528 43 328 1.7 4.3 0.00 0.12 0.12 63 1016.7
20260502225026 43 308 2.6 2.6 0.00 0.12 0.12 63 1016.8